Miscellaneous Local Product
Issued by NWS Hastings, NE

Home | Current Version | Previous Version | Graphics & Text | Print | Product List | Glossary On
Versions: 1 2 3 4 5 6 7 8 9 10 11 12 13 14 15 16 17 18 19 20 21 22 23 24 25 26 27 28 29 30 31 32 33 34 35 36 37 38 39 40 41 42 43 44 45 46 47 48 49 50
000
AXUS43 KGID 232202
MISGRI

GID CWA HOURLY WEATHER ROUNDUP
NATIONAL WEATHER SERVICE HASTINGS NE
500 PM CDT WED APR 23 2014

NOTE: "FAIR" INDICATES FEW OR NO CLOUDS BELOW 12,000 FEET WITH NO
SIGNIFICANT WEATHER AND/OR OBSTRUCTIONS TO VISIBILITY.

...SOUTH CENTRAL NEBRASKA...

CITY           SKY/WX    TMP DP  RH WIND       PRES   REMARKS
GRAND ISLAND   LGT RAIN  72  54  53 SE25G35   29.52F
HASTINGS       TSTM      64  55  72 NW12G31   29.55R
KEARNEY        CLOUDY    82  46  28 W17G29    29.49S
ORD            PTSUNNY   81  48  31 SW15      29.48F
YORK           MOSUNNY   75  48  38 S29G36    29.56F
AURORA         MOSUNNY   77  49  37 S23G30    29.55F
LEXINGTON      PTSUNNY   82  44  26 W10       29.52S
HOLDREGE       CLOUDY    81  45  27 SW13G21   29.50F
HEBRON         PTSUNNY   78  48  34 S18G28    29.57F

...NEBRASKA PANHANDLE...

CITY           SKY/WX    TMP DP  RH WIND       PRES   REMARKS
CHADRON        MOSUNNY   66  30  26 NW18G26   29.64R
ALLIANCE       PTSUNNY   64  20  18 NW25G32   29.64R
SCOTTSBLUFF    CLOUDY    63  18  17 W23G36    29.66S
SIDNEY         SUNNY     65  25  22 N26G37    29.65S

...WESTERN AND NORTH CENTRAL NEBRASKA...

CITY           SKY/WX    TMP DP  RH WIND       PRES   REMARKS
VALENTINE      MOSUNNY   75  28  17 W22G29    29.55R
AINSWORTH      SUNNY     77  37  23 NW15G26   29.54R
ONEILL         PTSUNNY   78  44  28 S18G26    29.49F
BROKEN BOW     PTSUNNY   79  40  24 N14       29.53F
IMPERIAL       SUNNY     78  29  16 N21G35    29.57F
NORTH PLATTE   SUNNY     77  39  25 N13       29.55S
MCCOOK         PTSUNNY   80  42  25 N17       29.51F

...EASTERN NEBRASKA...

CITY           SKY/WX    TMP DP  RH WIND       PRES   REMARKS
NORFOLK        SUNNY     72  44  36 SE26G37   29.58F
SO SIOUX CITY  MOSUNNY   63  43  48 S28G35    29.69F
TEKAMAH        PTSUNNY   61  44  53 SE28G36   29.69S
COLUMBUS       MOSUNNY   68  45  42 SE21G30   29.60F
ALBION         MOSUNNY   75  46  35 S21G32    29.54F
OMAHA EPPLEY   LGT RAIN  54  46  74 SE23      29.68F
OFFUTT AFB     TSTM      54  49  83 E18       29.70F
MILLARD        CLOUDY    54  46  75 SE9G17    29.69F
LINCOLN        PTSUNNY   68  46  45 SE18      29.64F
NEBRASKA CITY  CLOUDY    61  45  54 SE25G35   29.68F
BEATRICE       PTSUNNY   71  46  39 SE17G28   29.61F
FALLS CITY     LGT RAIN  67  44  43 S30G37    29.67F

...NORTHERN KANSAS...

CITY           SKY/WX    TMP DP  RH WIND       PRES   REMARKS
GOODLAND       MOSUNNY   79  41  25 NE23G31   29.51F
HILL CITY      CLOUDY    85  50  29 S22G36    29.50F
PHILLIPSBURG   MOSUNNY   84  46  26 S25G38    29.48F
SMITH CENTER   SUNNY     82  48  30 S32G39    29.51F
BELOIT         SUNNY     82  46  28 S17G30    29.53F
HAYS           CLOUDY   N/A N/A N/A S33G49    29.54F
RUSSELL        CLOUDY    84  49  29 S38G46    29.53F
CONCORDIA      PTSUNNY   80  47  31 S22G33    29.57F THUNDER
SALINA         CLOUDY    83  46  27 S30G48    29.55F
TOPEKA         PTSUNNY   80  47  31 SE20G28   29.71F



USA.gov is the U.S. government's official web portal to all federal, state and local government web resources and services.